STARLINK-1094, 44941

Orbit data source: Space-Track

STARLINK-1094, 44941 is a payload satellite owned by SpaceX/Seattle (US) in LEO that was launched on Tue, 07 Jan 2020 UTC via an FALCON 9 launch vehicle from the Air Force Eastern Test Range (AFETR). Payload-class satellites include a variety of spacecraft equipped with specific instruments for various scientific and technological missions. These include communications satellites like Starlink; space stations such as the ISS; scientific satellites like the Hubble; Earth observation satellites from companies like Planet Labs, Umbra, and HawkEye 360; GPS; miniature CubeSats for education and research; and military/defense satellites.

Loading next visibility...
Identifier
44941, 2020-001AD
Orbit
LEO
Country
Flag of USUS
Related business
Manufacturer
SpaceX/Seattle
Mission
Partially operational Commercial Communications
Bus & Motor
STARLINK, Unknown motor
Mass
260 kg wet, ~248 kg dry
Launch date (UTC)
2020-01-07 (6 years ago)
Launch vehicle
FALCON 9
Launch site
Air Force Eastern Test Range (AFETR)
Object type
Payload
Rocket body
Debris
Shape & HBR
Box + 1 Pan, 10.1 m
Radar Cross Section
13.562 m², Large (>1 m²)

Expand to show TLE details & history
Last TLE update: 2 days ago

TLE from 2 days ago
0 STARLINK-1094
1 44941U 20001AD  26171.45953267  .00053214  00000-0  76225-3 0  9993
2 44941  53.1514 192.5717 0007843  17.0780 343.0494 15.55650132356105
Epoch: 2026-06-20T11:01Z
TLE epoch observation values (Epoch: 2026-06-20T11:01:43.622Z)
Latitude
-0.00005°
Longitude
118.46605°
Altitude
396.087 km
Speed
7.677 km/s
True Right ascension
12h 50m 17s
True Declination
0° 00' 00"
Sunlit
Object was in daylight at epoch
Visualization orbit readout
Latitude
Unknown
Longitude
Unknown
Altitude
Unknown
Speed
Unknown
Apparent Right ascension
Unknown
Apparent Declination
Unknown
Sunlit
N/A
Visualization observer readout
Local Sidereal Time
23:18:58
Azimuth
Unknown
Elevation
Unknown
Doppler factor
Unknown
Orbital elements
Apogee altitude
405.841 km
Perigee altitude
395.208 km
Semi-major axis
6,778.661 km
Eccentricity
0.00078
Inclination
53.1514°
RAAN
192.5717°
Arg. of periapsis
17.078°
True anomaly
343.02317°
Mean anomaly
343.0494°
Eccentric anomaly
343.03629°
Mean motion
3.8889 °/min
Orbital period
92.57 mins
BSTAR
0.00076225
Loading maneuver chart data...
Computing Atmospheric mass density...

Documentation

Showing up to 5 results
|